Weather History for Hagerstown, MD

Change the Weather History Date:

Friday, August 15, 2014

  Actual Average Record
Temperature  
Mean Temperature 65 °F -  
Max Temperature 76 °F 82 °F 93 °F (2002)
Min Temperature 53 °F 63 °F 51 °F (2013)
Growing Degree Days 14 (Base 50)    
Moisture  
Dew Point 47 °F    
Average Humidity 55    
Maximum Humidity 77    
Minimum Humidity 33    
Precipitation  
Precipitation 0.00 in - - ()
Month to date precipitation 1.18  
Year to date precipitation 24.58  
Sea Level Pressure  
Sea Level Pressure 30.02 in    
Wind  
Wind Speed 6 mph (West)    
Max Wind Speed 15 mph    
Max Gust Speed 18 mph    
Visibility 10 miles    
Events      
Averages and records for this station are not official NWS values.
T = Trace of Precipitation, MM = Missing Value Source: NWS Daily Summary

Daily Weather History Graph

Daily Weather History Graph

Search for Another Location

Airport:

Trip Planner

Search our weather history database for the weather conditions in past years. The results will help you decide how hot, cold, wet, or windy it might be!

Date:

Astronomy

Aug. 15, 2014 Rise Set
Actual Time 6:23 AM EDT 8:07 PM EDT
Civil Twilight 5:54 AM EDT 8:35 PM EDT
Nautical Twilight 5:19 AM EDT 9:10 PM EDT
Astronomical Twilight 4:41 AM EDT 9:47 PM EDT
Moon 11:09 PM EDT (8/15) 12:02 PM EDT (8/15)
Length of Visible Light 14h 41m
Length of Day
13h 43m
Waning Gibbous, 69% of the Moon is Illuminated
Aug 15
Waning Gibbous
Aug 17
Last Quarter
Aug 25
New
Sep 2
First Quarter
Sep 8
Full

Hourly Weather History & Observations

Time (EDT) Temp. Dew Point Humidity Pressure Visibility Wind Dir Wind Speed Gust Speed Precip Events Conditions
12:53 AM 62.1 °F 46.0 °F 56% 30.01 in 10.0 mi NW 3.5 mph - N/A   Partly Cloudy
1:53 AM 57.9 °F 46.9 °F 67% 30.01 in 10.0 mi West 4.6 mph - N/A   Clear
2:53 AM 55.9 °F 46.0 °F 69% 30.01 in 10.0 mi WNW 4.6 mph - N/A   Clear
3:53 AM 57.0 °F 45.0 °F 64% 30.01 in 10.0 mi Calm Calm - N/A   Clear
4:53 AM 55.0 °F 46.0 °F 72% 30.01 in 10.0 mi Calm Calm - N/A   Clear
5:53 AM 55.9 °F 45.0 °F 67% 30.01 in 10.0 mi SSW 3.5 mph - N/A   Clear
6:53 AM 54.0 °F 46.0 °F 75% 30.04 in 10.0 mi South 3.5 mph - N/A   Clear
7:53 AM 57.0 °F 48.0 °F 72% 30.05 in 10.0 mi South 3.5 mph - N/A   Clear
8:53 AM 61.0 °F 48.0 °F 62% 30.06 in 10.0 mi West 6.9 mph - N/A   Clear
10:53 AM 68.0 °F 48.9 °F 50% 30.05 in 10.0 mi WNW 10.4 mph - N/A   Clear
11:53 AM 71.1 °F 46.0 °F 41% 30.05 in 10.0 mi West 8.1 mph - N/A   Clear
12:53 PM 73.0 °F 46.0 °F 38% 30.03 in 10.0 mi West 12.7 mph 18.4 mph N/A   Partly Cloudy
1:53 PM 73.9 °F 45.0 °F 35% 30.01 in 10.0 mi West 9.2 mph - N/A   Partly Cloudy
2:53 PM 75.0 °F 46.0 °F 36% 30.01 in 10.0 mi SW 6.9 mph - N/A   Overcast
3:53 PM 75.0 °F 45.0 °F 34% 30.00 in 10.0 mi West 6.9 mph - N/A   Mostly Cloudy
4:53 PM 75.9 °F 45.0 °F 33% 29.99 in 10.0 mi WNW 12.7 mph - N/A   Clear
5:53 PM 75.0 °F 45.0 °F 34% 29.99 in 10.0 mi NW 9.2 mph - N/A   Clear
6:53 PM 72.0 °F 48.0 °F 43% 30.00 in 10.0 mi NW 8.1 mph - N/A   Clear
7:53 PM 69.1 °F 48.0 °F 47% 30.01 in 10.0 mi WNW 5.8 mph - N/A   Clear
8:53 PM 69.1 °F 46.0 °F 44% 30.03 in 10.0 mi Calm Calm - N/A   Clear
9:53 PM 66.9 °F 46.0 °F 47% 30.04 in 10.0 mi Calm Calm - N/A   Clear
10:53 PM 64.9 °F 48.0 °F 54% 30.04 in 10.0 mi Calm Calm - N/A   Clear
11:53 PM 61.0 °F 50.0 °F 67% 30.05 in 10.0 mi Calm Calm - N/A   Clear